COSMOS 1247 DEB, 12984

Orbit data source: Space-Track

COSMOS 1247 DEB, 12984 is space debris in HEO originally from a launch on Thu, 19 Feb 1981 UTC launched from the Plesetsk Missile And Space Complex (PKMTR). Debris objects in space refer to the collection of defunct objects orbiting the Earth. Examples of debris include non-operational satellites, rocket bodies, and fragments generated from explosions, collisions, or faulty payload assembly.

Loading next visibility...
Identifier
12984, 1981-016F
Orbit
HEO
Country
Flag of CISCIS
Related business
Manufacturer
Unknown
Mission
Spacecraft
Bus & Motor
Unknown
Mass
Unknown
Launch date (UTC)
1981-02-19 (45 years ago)
Launch vehicle
Unknown
Launch site
Plesetsk Missile And Space Complex (PKMTR)
Object type
Payload
Rocket body
Debris
Shape & HBR
Unknown shape, 1.7 m
Radar Cross Section
Large (>1 m²)

Expand to show TLE details & history
Last TLE update: 5 days ago

TLE from 5 days ago
0 COSMOS 1247 DEB
1 12984U 81016F   26168.96838182 -.00000645  00000-0  00000+0 0  9993
2 12984  69.5167   6.7156 6116581 338.6609   4.1111  2.02665952329984
Epoch: 2026-06-17T23:14Z
TLE epoch observation values (Epoch: 2026-06-17T23:14:28.189Z)
Latitude
-0.00085°
Longitude
111.90147°
Altitude
4,164.118 km
Speed
7.779 km/s
True Right ascension
00h 26m 56s
True Declination
0° 00' 03"
Sunlit
Object was in daylight at epoch
Visualization orbit readout
Latitude
Unknown
Longitude
Unknown
Altitude
Unknown
Speed
Unknown
Apparent Right ascension
Unknown
Apparent Declination
Unknown
Sunlit
N/A
Visualization observer readout
Local Sidereal Time
23:09:10
Azimuth
Unknown
Elevation
Unknown
Doppler factor
Unknown
Orbital elements
Apogee altitude
36,129.823 km
Perigee altitude
3,864.496 km
Semi-major axis
26,375.296 km
Eccentricity
0.61166
Inclination
69.5167°
RAAN
6.7156°
Arg. of periapsis
338.6609°
True anomaly
21.19321°
Mean anomaly
4.1111°
Eccentric anomaly
10.49403°
Mean motion
0.5067 °/min
Orbital period
710.49 mins
BSTAR
0
Loading maneuver chart data...
Computing Atmospheric mass density...
Loading historical data...
Loading historical data...
Loading historical data...
Loading historical data...
Loading historical data...
Loading historical data...
Loading historical data...

Documentation

Showing up to 5 results
|